Location: Unspecified
(0.0000°N, 0.0000°E)
Time: 13:22:30
(UTC+00:00)

N. Korean satellite - Pass Details

Date: 14 August 2019
Orbit: 457 x 507 km, 97.2° (Epoch: 20 August)

Event Time Altitude Azimuth Distance (km) Brightness Sun altitude
Rises 05:07:45 0° 29° (NNE) 2,536 10.9 -13.8°
Reaches altitude 10° 05:10:01 10° 41° (NE) 1,651 10.1 -13.3°
Maximum altitude 05:13:06 28° 101° (E) 927 8.7 -12.5°
Drops below altitude 10° 05:16:08 10° 161° (SSE) 1,633 9.3 -11.8°
Sets 05:18:22 0° 173° (S) 2,504 10.1 -11.2°
